Oujda, Morocco

2:41 AM WEST on May 01, 2017 (GMT +0100)
Oujda

Weather History for GMFO - February, 2013

Change the Weather History Date:

Wednesday, February 6, 2013

  Actual Average Record
Temperature  
Mean Temperature 52 °F -  
Max Temperature 63 °F 62 °F 76 °F (2014)
Min Temperature 42 °F 40 °F 33 °F (2011)
Degree Days  
Heating Degree Days 12    
Growing Degree Days 2 (Base 50)    
Moisture  
Dew Point 38 °F    
Average Humidity 51    
Maximum Humidity 67    
Minimum Humidity 25    
Precipitation  
Precipitation 0.00 in 0.05 in - ()
Sea Level Pressure  
Sea Level Pressure 30.13 in    
Wind  
Wind Speed 15 mph ()    
Max Wind Speed 21 mph    
Max Gust Speed -    
Visibility 8.7 miles    
Events      
Averages and records for this station are not official NWS values.
T = Trace of Precipitation, MM = Missing Value Source: Averaged Metar Reports

Daily Weather History Graph

Daily Weather History Graph

Search for Another Location

Airport or City:

Trip Planner

Search our weather history database for the weather conditions in past years. The results will help you decide how hot, cold, wet, or windy it might be!

Date:

Astronomy

Feb. 06, 2013 Rise Set
Actual Time 7:02 AM WET 5:42 PM WET
Civil Twilight 6:35 AM WET 6:08 PM WET
Nautical Twilight 6:05 AM WET 6:38 PM WET
Astronomical Twilight 5:36 AM WET 7:07 PM WET
Moon 3:26 AM WET (2/6) 1:49 PM WET (2/6)
Length of Visible Light 11h 32m
Length of Day
10h 39m
Waning Crescent, 19% of the Moon is Illuminated
Feb 6
Waning Crescent
Feb 10
New
Feb 17
First Quarter
Feb 25
Full
Mar 4
Last Quarter

Hourly Weather History & Observations

Time (WET) Temp. Windchill Dew Point Humidity Pressure Visibility Wind Dir Wind Speed Gust Speed Precip Events Conditions
12:00 AM 42 °F - 29 °F 50% 30.26 in 16 mi SW 10.4 mph - -  
1:00 AM 46.4 °F 40.4 °F 28.4 °F 50% 30.18 in - South 13.8 mph - N/A   Clear
2:00 AM 50.0 °F - 33.8 °F 54% 30.15 in - SW 16.1 mph - N/A   Clear
3:00 AM 50.0 °F - 37.4 °F 62% 30.15 in - SW 18.4 mph - N/A   Clear
4:00 AM 51.8 °F - 39.2 °F 62% 30.12 in - SW 18.4 mph - N/A   Clear
5:00 AM 53.6 °F - 41.0 °F 62% 30.12 in - WSW 20.7 mph - N/A   Clear
6:00 AM 51.8 °F - 41.0 °F 67% 30.09 in - SW 19.6 mph - N/A   Clear
8:00 AM 53.6 °F - 42.8 °F 67% 30.12 in - West 17.3 mph - N/A   Clear
9:00 AM 57.2 °F - 42.8 °F 59% 30.15 in - WSW 18.4 mph - N/A   Clear
10:00 AM 59.0 °F - 42.8 °F 55% 30.15 in - West 20.7 mph - N/A   Clear
11:00 AM 62.6 °F - 42.8 °F 48% 30.12 in - West 17.3 mph - N/A   Clear
12:00 PM 63 °F - 38 °F 28% 30.12 in 16 mi NW 20.7 mph - -   Scattered Clouds
12:00 PM 62.6 °F - 37.4 °F 39% 30.12 in 6.2 mi NW 20.7 mph - N/A   Partly Cloudy
12:15 PM 62.6 °F - 41.0 °F 45% 30.12 in 6.2 mi NNW 19.6 mph - N/A   Partly Cloudy
2:00 PM 60.8 °F - 39.2 °F 45% 30.09 in 6.2 mi WNW 18.4 mph - N/A   Scattered Clouds
3:00 PM 63 °F - 36 °F 25% 30.04 in 16 mi West 20.7 mph - -   Partly Cloudy
3:00 PM 62.6 °F - 35.6 °F 37% 30.06 in 6.2 mi West 20.7 mph - N/A   Scattered Clouds
4:00 PM 59.0 °F - 35.6 °F 42% 30.06 in 6.2 mi NNW 16.1 mph - N/A   Partly Cloudy
6:00 PM 53.6 °F - 32.0 °F 44% 30.09 in 6.2 mi NNW 12.7 mph - N/A   Partly Cloudy
8:00 PM 50.0 °F - 37.4 °F 62% 30.12 in 6.2 mi NW 19.6 mph - N/A   Scattered Clouds
8:47 PM 49 °F - 37 °F 52% 30.17 in 9 mi NW 19.6 mph - -   Scattered Clouds
10:00 PM 50.0 °F - 37.4 °F 62% 30.15 in 6.2 mi WNW 17.3 mph - N/A   Scattered Clouds
11:00 PM 50.0 °F - 37.4 °F 62% 30.15 in 6.2 mi NW 20.7 mph - N/A   Scattered Clouds